[ hide orbit diagram ]
For accurate long-term ephemerides, please instead use our Horizons system.This orbit viewer was implemented using two-body methods, and hence should not be used for determining accurate long-term trajectories (over several years or decades) or planetary encounter circumstances.
Orbital Elements at Epoch 2459200.5 (2020-Dec-17.0) TDB
Reference: JPL 25 (heliocentric ecliptic J2000)
Element | Value | Uncertainty (1-sigma) | Units |
e | .161716688944322 | 4.2096e-08 | |
a | 2.353352777502437 | 7.4772e-09 | au |
q | 1.972776358406819 | 9.8604e-08 | au |
i | 6.028192811038618 | 3.9062e-06 | deg |
node | 224.7001376286134 | 3.6925e-05 | deg |
peri | 123.1590585918464 | 3.818e-05 | deg |
M | 231.4670407118548 | 1.073e-05 | deg |
tp | 2459671.304911393496 (2022-Apr-01.80491139) | 4.0058e-05 | TDB |
period | 1318.648298773673 3.61 | 6.2845e-06 1.721e-08 | d yr |
n | .2730068361175573 | 1.3011e-09 | deg/d |
Q | 2.733929196598055 | 8.6864e-09 | au |
|
| | Orbit Determination Parameters
Additional Information
|
[ show covariance matrix ]
Physical Parameter Table
Parameter |
Symbol |
Value |
Units |
Sigma |
Reference |
Notes |
absolute magnitude |
H |
14.27 |
|
n/a |
E2021B10 |
|
diameter |
diameter |
3.988 |
km |
0.172 |
urn:nasa:pds:neowise_diameters_albedos::2.0[mainbelt] (http://adsabs.harvard.edu/abs/2011ApJ...741...68M) |
|
geometric albedo |
albedo |
0.279 |
|
0.062 |
urn:nasa:pds:neowise_diameters_albedos::2.0[mainbelt] (http://adsabs.harvard.edu/abs/2011ApJ...741...68M) |
|
|
21614 Grochowski | Discovered 1999 May 10 by the Lincoln Laboratory Near-Earth Asteroid Research Team at Socorro. |
Julia Caroline Grochowski (b. 1988) was awarded second place in the 2005 Intel International Science and Engineering Fair for her medicine and health team project. She attends the Archbishop MacDonald High School, Edmonton, Alberta, Canada. |
NOTE: some special characters may not display properly (any characters within {} are an attempt to place the proper accent above a character) |
Reference: 20050822/MPCPages.arc | Last Updated: 2005-08-26 |
|
[ show close-approach data ]
Alternate Designations
1999 JW75 = 1971 SF2 = 1978 NY2 |
|
|